Temperature
22 22 21 21 20 20 19 19 19 19 18 18 18 18 18 18 18 18 18 18 18 18 18 18 18 18 18 18 18 17 17 17 17 17 17 17 17 17 17 17 17 17 17
22 22 22 21 21 20 20 19 19 19 19 19 19 18 18 18 18 18 18 18 18 18 18 18 18 18 18 18 18 18 18 17 17 17 17 17 17 17 17 17 17 17 17
23 22 22 21 21 21 20 20 19 19 19 19 18 18 18 18 18 18 18 18 18 18 18 18 18 18 18 18 18 18 18 18 18 17 17 17 17 17 17 17 17 17 17
23 23 22 22 21 21 21 20 20 19 19 19 18 18 18 18 18 18 18 18 18 18 18 18 18 18 18 18 18 18 18 18 18 17 17 17 17 17 16 16 17 16 16
23 23 23 22 22 22 21 20 20 20 19 19 19 18 18 18 18 18 18 18 18 18 18 18 18 18 18 18 18 18 17 17 17 17 17 17 17 17 17 16 16 16 16
23 23 23 23 22 22 21 21 20 20 19 19 19 19 19 19 18 18 18 18 18 18 18 18 18 18 18 18 18 18 18 17 17 17 17 17 17 17 17 17 16 16 16
24 23 23 23 22 22 21 21 20 20 20 19 19 19 19 19 19 19 19 19 19 19 19 19 19 18 18 18 18 18 18 17 17 17 17 17 17 17 17 17 16 16 16
24 24 23 23 23 22 22 21 21 20 20 20 20 19 19 19 19 19 19 19 19 19 19 19 19 18 18 18 18 18 18 17 17 17 17 17 17 17 17 17 16 16 16
24 24 23 23 23 23 22 22 21 21 20 20 20 20 20 19 19 19 19 19 19 19 19 19 19 18 18 18 18 18 18 17 17 17 17 17 17 17 17 17 16 16 16
24 24 23 23 23 23 23 22 22 21 21 21 20 20 20 20 20 19 19 19 19 19 19 19 19 18 18 18 18 18 18 17 17 17 17 17 17 17 16 16 16 16 16
24 23 23 23 23 23 22 22 22 21 21 21 21 20 20 20 20 19 19 19 19 19 19 19 18 18 18 18 18 18 18 17 17 17 17 17 17 17 16 16 16 16 16
24 24 23 23 23 22 22 22 22 22 21 21 21 21 20 20 20 19 19 19 19 19 19 19 19 18 18 18 18 18 18 18 17 17 17 17 17 17 17 16 16 16 16
24 23 23 23 23 22 22 22 22 22 22 21 21 21 20 20 20 19 19 19 19 19 19 18 18 18 18 18 18 18 18 17 17 17 17 17 17 17 16 16 16 16 16
24 23 23 23 22 22 22 22 22 22 22 21 21 21 20 20 20 20 19 19 19 19 19 18 18 18 18 18 18 18 18 17 17 17 17 17 17 16 16 16 16 16 16
23 23 23 23 22 22 22 22 22 22 21 21 21 21 20 20 20 19 19 19 19 19 19 18 18 18 18 18 18 17 17 17 17 17 17 17 16 16 16 16 16 16 15
22 22 22 22 22 22 22 22 21 21 21 21 21 21 20 20 20 19 19 19 19 18 18 18 18 18 18 18 17 17 17 17 17 17 17 16 16 16 16 16 16 15 15
21 21 22 22 22 21 21 21 21 21 21 20 20 20 20 20 20 19 19 19 19 18 18 18 18 18 18 18 17 17 17 17 17 17 17 16 16 16 16 16 15 15 15
21 21 21 21 21 21 21 21 21 21 20 20 20 20 20 20 19 19 19 19 18 18 18 18 18 17 17 17 17 17 17 17 17 17 17 16 16 16 16 15 15 15 15
21 21 21 21 21 21 21 20 20 20 20 20 19 19 19 19 19 19 19 18 18 18 18 18 17 17 17 17 17 16 16 16 16 16 16 16 16 16 15 15 15 15 15
20 20 20 20 20 20 20 20 19 19 19 19 19 19 19 18 18 18 18 18 18 17 17 17 17 17 17 17 16 16 16 16 16 16 16 16 16 16 15 15 15 15 15
20 20 20 20 20 20 20 19 19 19 19 19 18 18 18 18 18 18 17 17 17 17 17 17 17 16 16 16 16 16 16 16 16 16 16 16 16 15 15 15 15 14 14
19 19 19 19 19 19 19 19 19 18 18 18 18 18 18 17 17 17 17 17 17 17 17 16 16 16 16 16 16 16 16 16 16 16 16 15 15 15 15 14 14 14 14
19 19 18 18 18 18 18 18 18 18 18 18 17 17 17 17 17 17 16 16 16 16 16 16 16 16 16 16 16 16 16 15 15 15 15 15 15 14 14 14 14 14 13
18 18 18 18 18 18 18 18 17 17 17 17 17 17 16 16 16 16 16 16 16 16 16 16 16 16 16 16 16 16 15 15 15 15 14 14 14 14 14 14 14 13 13
18 17 17 17 17 17 17 17 17 17 16 16 16 16 16 16 16 16 15 15 15 15 15 15 15 15 15 15 15 15 15 15 15 14 14 14 14 14 14 13 13 13 13
17 16 16 16 16 16 16 16 16 16 16 16 16 15 15 15 15 15 15 15 15 15 15 15 15 15 15 15 15 14 14 14 14 14 13 13 13 13 13 13 13 13 13
Wind_Speed
11 12 12 12 10 8 8 7 7 6 5 4 4 4 3 3 2 3 6 7 7 7 6 4 3 3 3 3 4 3 3 2 2 3 2 2 2 0 1 2 3 4 7
10 11 11 11 10 9 8 8 8 7 6 5 4 4 4 3 3 2 3 6 6 6 6 4 3 3 3 3 4 3 2 1 2 3 2 1 3 3 1 1 3 3 4
16 14 12 11 10 10 10 9 8 7 6 6 4 4 3 2 1 1 2 3 6 7 6 5 4 4 4 4 4 4 4 3 1 2 3 3 2 1 2 1 1 2 2
14 14 14 13 13 12 10 9 8 7 6 6 6 6 5 4 4 3 3 3 5 6 6 6 5 4 4 4 4 3 3 4 2 1 2 2 4 3 0 2 1 1 2
16 16 15 15 13 12 10 9 8 7 6 6 7 7 5 4 3 3 3 3 3 4 5 5 5 4 4 4 4 3 3 3 3 3 1 1 1 2 3 2 1 1 1
16 15 14 12 11 10 9 9 9 7 7 7 7 7 7 6 5 4 4 3 2 2 3 4 5 5 4 4 4 4 4 4 3 3 3 3 3 3 3 3 2 2 2
15 14 14 14 13 12 11 10 10 8 8 8 7 7 7 7 7 6 5 5 3 3 4 4 4 3 4 5 4 4 4 4 4 4 3 3 3 3 3 3 2 2 1
14 15 15 15 15 15 13 12 11 9 9 8 7 7 7 6 5 6 5 5 5 4 5 4 4 4 5 5 4 4 4 4 4 4 4 3 3 3 4 4 4 2 1
13 14 14 14 13 14 13 13 12 10 9 9 8 6 6 6 6 5 5 4 4 4 5 5 5 4 4 4 4 3 4 3 4 4 4 3 3 3 3 4 5 5 3
12 12 13 14 13 13 12 12 11 11 9 9 9 8 7 7 6 5 5 5 5 4 4 4 4 4 4 4 3 3 3 3 3 3 3 3 2 2 3 3 3 4 4
12 12 12 13 12 11 11 11 10 9 9 9 8 8 7 6 5 5 6 5 5 5 5 5 5 5 4 4 4 4 4 4 3 3 4 4 3 2 3 3 3 3 3
11 11 11 11 11 11 11 11 10 10 10 9 8 7 6 6 6 6 5 5 5 5 5 4 5 5 5 4 5 5 5 5 5 4 4 4 3 3 3 3 3 3 3
8 8 9 10 10 11 11 10 10 10 9 8 8 6 6 6 6 6 5 5 5 5 5 5 5 5 5 5 5 5 5 5 5 5 5 4 4 4 3 3 3 3 3
9 9 10 10 10 9 10 10 10 10 9 8 8 8 8 7 7 6 6 5 5 5 5 5 6 6 5 5 5 5 5 5 4 4 4 4 5 5 4 4 4 3 3
8 10 11 10 9 8 8 8 8 8 9 9 9 9 8 7 6 6 6 5 5 6 5 5 5 5 5 5 6 5 5 5 4 3 3 4 5 5 5 4 4 5 3
7 9 9 9 9 8 8 7 7 7 7 8 8 7 7 7 7 6 6 6 5 5 5 4 4 4 4 5 7 6 5 4 4 4 3 3 4 5 5 6 7 7 6
7 8 9 9 9 9 8 8 8 7 7 7 7 6 7 7 7 6 5 6 6 5 5 5 5 5 6 7 8 9 6 5 6 6 5 4 4 4 3 5 6 6 8
6 6 7 7 6 7 7 6 6 7 7 6 6 6 6 6 6 6 6 6 5 5 5 5 6 6 7 8 8 9 6 6 6 6 6 6 5 5 5 4 3 4 5
5 5 6 6 6 6 6 6 5 5 5 5 5 5 5 6 6 7 7 5 5 5 5 4 5 6 6 8 8 7 4 5 5 5 5 6 6 7 7 5 5 4 5
4 5 5 5 5 4 5 6 5 4 4 3 4 4 4 5 6 6 5 4 4 5 4 4 5 5 5 6 7 7 4 4 4 4 4 7 8 8 9 7 6 7 6
5 6 6 5 4 4 5 5 4 3 3 2 2 2 3 4 4 4 4 3 4 4 4 4 4 4 5 6 7 7 5 5 4 4 4 5 8 9 9 9 7 9 6
5 6 6 4 3 4 5 4 3 2 1 1 1 1 2 3 3 3 3 3 3 3 3 3 3 3 4 5 6 7 7 6 5 6 5 5 8 8 9 8 8 7 5
4 5 5 4 3 3 4 3 2 2 2 2 1 2 2 2 2 3 4 3 3 3 3 3 4 4 3 4 5 7 8 8 6 5 6 6 7 7 7 9 8 6 4
4 4 5 4 3 2 3 2 1 1 2 1 1 2 2 2 1 1 2 2 3 3 3 3 4 4 3 3 3 4 5 5 5 4 4 5 5 6 6 5 5 5 6
4 3 4 3 1 1 2 1 1 2 1 1 1 1 1 1 1 1 1 2 3 4 5 4 4 4 5 6 6 5 4 5 5 3 2 1 2 3 3 3 3 4 4
4 4 3 2 1 1 1 1 1 1 1 0 1 1 1 1 1 1 1 2 2 2 4 6 5 5 6 6 6 7 7 7 6 4 3 4 4 5 5 5 5 4 5
Wind_Direction
171 163 161 158 155 150 145 146 149 155 145 137 137 138 149 159 158 166 165 167 166 162 155 150 149 141 143 153 149 141 137 132 119 93 48 8 357 358 221 181 171 175 184
165 166 164 162 162 160 155 152 157 159 159 159 156 155 154 161 168 171 166 171 166 163 163 156 159 153 148 147 148 143 137 155 142 133 115 30 359 359 354 161 176 184 177
173 173 169 168 165 165 164 164 165 161 162 155 136 123 105 94 111 158 180 185 172 169 166 163 160 159 158 168 173 161 157 174 196 165 155 158 205 297 346 331 151 169 168
174 174 172 172 175 175 170 166 167 166 163 153 147 149 154 167 189 180 183 186 176 174 173 172 166 167 163 168 182 167 163 159 182 216 202 181 166 164 199 336 341 152 175
178 177 177 177 178 175 171 171 169 171 169 162 162 158 161 173 169 160 168 187 190 183 180 176 174 173 169 174 180 170 167 168 178 189 186 148 140 145 157 202 275 331 263
181 178 175 171 172 171 171 171 170 175 172 168 168 167 166 167 160 167 176 189 192 196 190 175 175 176 175 182 185 185 179 186 188 193 183 172 171 183 168 186 204 225 253
180 176 173 173 174 173 177 176 174 178 180 175 176 178 173 171 177 179 182 182 183 194 202 187 177 180 187 189 187 188 194 192 192 200 202 199 201 178 163 160 176 200 239
180 179 179 178 178 179 179 178 178 181 183 182 185 182 178 177 184 184 181 187 192 198 192 185 187 192 194 195 188 195 208 202 204 211 205 207 216 189 174 168 160 168 237
178 178 177 177 177 178 180 179 180 181 185 186 185 186 185 184 187 186 182 190 193 196 187 186 189 193 193 192 186 201 211 203 205 209 207 210 222 206 197 176 165 165 196
175 177 179 178 177 178 179 177 179 185 187 188 192 192 193 193 192 182 185 187 190 187 178 186 189 195 197 195 192 204 213 202 211 207 205 216 223 210 197 187 183 175 177
173 177 180 180 177 174 177 176 180 183 186 188 191 192 196 196 188 189 194 194 194 188 187 191 193 199 207 208 201 211 207 205 217 216 205 215 201 198 196 186 186 185 168
168 170 174 173 174 176 179 181 183 186 191 190 189 191 191 189 190 197 203 197 194 196 195 191 193 202 208 209 207 216 215 209 214 217 208 217 208 205 203 194 197 197 183
160 162 165 168 174 178 181 183 186 191 191 187 188 190 189 189 193 196 194 189 188 192 194 191 199 207 210 211 214 213 212 209 213 212 210 216 197 209 210 200 198 204 197
159 161 165 165 171 176 179 181 187 191 185 181 185 191 197 195 193 191 191 192 191 194 200 205 208 210 213 213 213 206 204 205 209 208 208 206 198 201 197 197 192 184 175
144 157 163 164 166 167 171 175 182 186 183 181 187 196 197 192 189 190 193 196 198 200 199 203 211 212 211 212 203 201 200 200 206 208 207 207 203 199 195 195 188 177 179
139 148 153 153 159 163 171 172 176 177 171 178 191 195 191 189 192 194 192 192 201 201 191 197 204 214 225 214 199 194 198 196 195 205 216 213 205 206 203 202 196 185 186
150 153 153 158 165 171 171 172 178 173 171 181 190 189 188 189 193 193 189 197 205 202 201 206 211 220 229 214 203 199 197 202 206 206 209 220 217 203 201 205 203 207 205
144 148 151 154 160 160 158 159 157 160 169 181 189 192 190 198 200 192 199 206 204 205 211 214 220 225 234 221 214 207 205 210 215 213 209 210 217 214 194 197 212 228 229
137 132 135 141 137 143 149 139 141 147 156 175 186 191 193 196 201 204 209 207 200 207 213 215 217 227 237 224 217 206 207 214 221 221 215 209 215 217 195 192 211 235 252
114 115 107 107 115 124 128 129 137 136 154 180 191 188 188 196 208 211 209 204 200 209 213 222 223 223 227 222 215 205 204 208 221 229 228 220 214 215 201 199 206 225 242
101 103 101 105 117 123 120 122 131 157 187 178 162 173 195 206 209 208 206 202 202 205 211 221 231 226 225 224 220 209 204 207 211 222 231 232 214 214 212 207 212 223 223
93 104 103 101 99 110 119 125 154 188 170 165 180 215 231 229 221 212 214 206 199 207 220 228 246 252 241 232 229 220 213 207 207 222 227 229 220 218 216 215 222 220 210
85 101 108 97 76 86 116 138 199 186 166 177 229 251 255 252 231 214 214 212 206 211 225 230 243 257 256 245 234 222 216 210 212 224 223 226 227 224 225 226 222 212 207
83 89 95 94 72 63 94 135 182 155 148 181 234 253 243 257 263 227 205 210 220 222 228 230 241 252 255 250 238 228 224 224 225 233 233 229 226 219 225 229 224 214 212
63 78 90 91 84 68 65 53 60 101 118 186 223 243 215 214 222 205 207 216 231 221 217 228 228 235 253 251 229 213 217 216 218 204 204 213 216 227 237 238 235 224 218
57 58 57 72 77 63 39 12 23 73 111 208 242 218 211 210 204 197 297 310 255 259 238 227 228 244 242 245 235 221 215 211 191 167 202 223 227 231 234 234 236 230 228
Height
1521 1522 1524 1525 1526 1526 1527 1528 1529 1530 1532 1533 1534 1536 1537 1539 1540 1541 1542 1543 1544 1545 1547 1548 1549 1551 1552 1553 1554 1554 1555 1556 1557 1558 1558 1559 1559 1559 1559 1560 1560 1561 1562
1520 1522 1523 1524 1525 1526 1527 1528 1529 1530 1531 1533 1534 1536 1537 1539 1540 1541 1542 1543 1544 1545 1547 1548 1549 1550 1551 1552 1553 1554 1554 1555 1556 1557 1557 1558 1559 1558 1558 1559 1559 1560 1560
1516 1519 1521 1523 1524 1525 1526 1527 1528 1529 1531 1533 1534 1536 1537 1538 1540 1540 1541 1543 1544 1545 1546 1548 1549 1550 1551 1551 1552 1553 1554 1554 1555 1556 1557 1557 1557 1557 1558 1558 1558 1559 1559
1514 1517 1519 1521 1522 1524 1526 1527 1528 1529 1531 1532 1534 1535 1536 1537 1538 1540 1541 1542 1543 1545 1546 1547 1548 1549 1550 1550 1551 1552 1553 1553 1554 1555 1555 1556 1556 1556 1556 1557 1557 1558 1558
1511 1514 1516 1518 1521 1523 1525 1527 1528 1529 1530 1532 1533 1534 1536 1537 1538 1540 1541 1542 1543 1544 1545 1546 1547 1548 1548 1549 1550 1550 1551 1552 1552 1553 1553 1554 1554 1554 1554 1555 1556 1556 1556
1508 1511 1515 1517 1520 1522 1524 1526 1527 1528 1529 1531 1532 1533 1535 1536 1537 1539 1540 1541 1542 1543 1544 1545 1545 1546 1547 1547 1548 1549 1549 1550 1550 1551 1551 1552 1552 1552 1552 1552 1553 1554 1554
1506 1509 1512 1515 1517 1520 1522 1524 1526 1527 1528 1529 1531 1532 1534 1535 1536 1537 1539 1540 1541 1542 1543 1543 1544 1545 1545 1546 1546 1547 1547 1548 1548 1549 1549 1550 1550 1550 1551 1551 1551 1552 1553
1503 1506 1509 1511 1514 1517 1520 1522 1524 1525 1527 1528 1530 1531 1533 1534 1535 1536 1537 1538 1539 1541 1542 1542 1543 1543 1544 1544 1544 1545 1545 1546 1546 1547 1547 1547 1548 1548 1549 1549 1550 1550 1550
1500 1503 1506 1509 1512 1514 1517 1519 1521 1523 1525 1527 1528 1530 1531 1532 1534 1535 1536 1537 1538 1539 1540 1541 1541 1542 1542 1542 1542 1542 1543 1543 1544 1545 1545 1545 1545 1546 1546 1547 1547 1548 1547
1497 1500 1504 1506 1509 1512 1515 1517 1519 1521 1523 1525 1527 1528 1530 1531 1532 1534 1535 1535 1536 1537 1538 1539 1539 1540 1540 1540 1540 1540 1541 1541 1542 1542 1543 1543 1543 1543 1543 1544 1545 1545 1546
1493 1496 1500 1504 1507 1510 1513 1515 1518 1519 1521 1523 1525 1526 1528 1529 1531 1532 1533 1534 1534 1535 1536 1536 1537 1537 1538 1538 1538 1538 1539 1539 1539 1540 1540 1540 1540 1540 1540 1541 1542 1542 1543
1490 1494 1498 1502 1505 1508 1511 1513 1515 1517 1519 1521 1523 1525 1526 1527 1528 1529 1530 1531 1532 1532 1533 1534 1534 1534 1535 1535 1536 1536 1536 1536 1536 1537 1537 1537 1537 1537 1538 1538 1538 1539 1540
1489 1493 1497 1501 1504 1506 1508 1511 1513 1515 1517 1519 1520 1522 1523 1525 1525 1526 1527 1528 1529 1530 1530 1531 1531 1532 1532 1532 1532 1533 1533 1533 1534 1534 1534 1534 1535 1534 1535 1535 1535 1536 1536
1486 1490 1494 1498 1501 1504 1506 1508 1510 1513 1514 1516 1517 1519 1520 1521 1523 1524 1525 1525 1526 1526 1527 1528 1528 1528 1529 1529 1529 1529 1530 1530 1531 1531 1531 1531 1531 1531 1532 1532 1532 1533 1533
1485 1489 1492 1495 1499 1502 1504 1506 1508 1510 1512 1513 1514 1515 1517 1519 1520 1521 1522 1523 1523 1523 1524 1524 1525 1525 1525 1526 1526 1526 1526 1527 1527 1528 1528 1528 1528 1529 1529 1529 1529 1529 1530
1486 1488 1491 1493 1496 1499 1502 1504 1506 1507 1509 1510 1512 1513 1515 1516 1517 1518 1519 1519 1520 1520 1520 1521 1521 1522 1522 1522 1523 1523 1523 1523 1524 1524 1524 1525 1525 1525 1525 1525 1526 1526 1526
1486 1488 1489 1491 1494 1496 1499 1501 1503 1505 1506 1507 1509 1510 1511 1512 1513 1514 1515 1516 1516 1516 1516 1517 1518 1518 1518 1519 1519 1519 1520 1519 1520 1520 1520 1520 1520 1521 1521 1521 1521 1522 1522
1485 1487 1489 1491 1493 1495 1497 1498 1500 1502 1503 1504 1505 1506 1507 1508 1509 1510 1511 1511 1512 1512 1513 1513 1514 1514 1514 1514 1514 1514 1514 1515 1515 1516 1516 1516 1516 1516 1517 1517 1517 1517 1517
1485 1487 1489 1491 1492 1494 1496 1497 1498 1499 1500 1501 1502 1503 1504 1504 1505 1506 1507 1507 1508 1508 1509 1509 1509 1509 1509 1510 1509 1510 1510 1510 1510 1511 1512 1512 1512 1512 1513 1513 1513 1513 1513
1486 1487 1488 1490 1491 1493 1494 1495 1496 1497 1497 1498 1499 1499 1500 1501 1501 1502 1503 1503 1504 1504 1505 1505 1505 1504 1504 1505 1505 1505 1504 1504 1505 1506 1507 1507 1507 1507 1508 1508 1508 1508 1508
1486 1487 1488 1489 1490 1491 1492 1493 1494 1494 1495 1496 1496 1496 1496 1497 1498 1498 1499 1500 1500 1500 1500 1500 1500 1500 1500 1500 1500 1500 1499 1499 1500 1500 1501 1502 1502 1503 1503 1503 1503 1503 1503
1485 1486 1487 1488 1489 1490 1490 1491 1492 1492 1493 1493 1493 1493 1493 1494 1494 1495 1495 1495 1495 1495 1495 1495 1495 1495 1495 1495 1495 1495 1495 1495 1495 1495 1496 1496 1497 1498 1498 1498 1498 1498 1498
1486 1486 1486 1487 1488 1489 1489 1490 1491 1491 1491 1491 1490 1490 1490 1491 1491 1491 1491 1491 1491 1491 1491 1491 1490 1490 1490 1490 1490 1490 1490 1490 1491 1491 1491 1491 1492 1493 1493 1493 1493 1493 1493
1485 1486 1487 1487 1487 1488 1488 1489 1489 1489 1489 1488 1488 1487 1487 1487 1487 1487 1487 1487 1487 1487 1487 1486 1486 1486 1485 1485 1485 1485 1485 1485 1485 1486 1486 1486 1486 1487 1487 1487 1487 1487 1487
1485 1485 1486 1486 1487 1487 1487 1487 1487 1487 1486 1486 1485 1485 1484 1484 1484 1484 1484 1483 1483 1483 1483 1483 1482 1481 1480 1480 1481 1480 1480 1480 1480 1480 1480 1480 1481 1481 1481 1481 1481 1482 1481
1484 1485 1485 1485 1485 1485 1485 1485 1485 1485 1484 1483 1482 1482 1482 1481 1481 1480 1480 1480 1479 1479 1479 1479 1478 1477 1477 1476 1476 1475 1475 1475 1475 1475 1474 1474 1475 1475 1475 1475 1475 1475 1475